Theta_e
297 294 290 292 293 293 291 289 287 290 293 293 293 294 295 298 298 296 297 301 301 306 309 318 320 327 327 327 326 326 327 328 329 327 325 327 327 331 332 333 332 332 332 332
292 289 293 295 294 292 291 288 287 292 294 294 293 290 294 296 296 296 296 299 299 302 305 307 311 318 324 326 328 327 327 327 328 327 328 329 330 331 331 332 332 333 333 332
289 291 294 293 293 290 291 287 286 287 293 295 292 288 290 294 295 296 297 299 299 299 301 303 304 307 312 316 321 326 328 328 328 329 328 328 329 329 328 330 331 333 333 333
289 293 291 291 291 291 287 293 292 289 290 284 290 281 285 289 289 292 295 296 298 300 300 300 303 304 304 308 316 317 319 321 323 327 326 327 326 324 326 327 328 330 330 330
288 289 289 289 290 293 290 294 293 291 289 288 286 284 285 287 286 289 294 294 296 299 300 299 299 303 304 305 307 311 312 313 314 319 323 324 323 325 326 325 325 327 325 326
290 293 292 291 293 293 294 292 292 291 288 283 284 285 282 285 286 290 294 295 296 297 299 300 301 302 302 303 304 306 308 308 310 310 311 312 314 316 318 320 321 320 318 319
289 289 292 292 290 294 293 290 285 283 282 280 285 283 283 288 291 292 293 296 298 298 298 299 299 301 300 299 302 303 304 304 306 306 307 307 308 310 311 313 313 315 314 315
283 282 289 292 290 287 288 288 283 276 278 280 285 280 284 291 292 294 296 297 299 299 299 298 298 299 300 300 299 301 302 301 303 304 304 305 307 307 307 308 310 311 311 310
283 283 291 290 291 290 288 285 289 283 280 280 282 284 289 291 290 292 292 294 293 294 297 300 299 299 299 300 299 299 301 302 302 302 303 304 305 306 307 307 308 307 308 308
288 281 288 290 292 291 289 291 284 286 277 275 279 280 281 286 288 290 290 291 291 294 293 294 296 297 298 298 299 299 300 300 301 302 302 303 304 305 306 306 306 305 305 305
290 285 285 289 287 285 288 287 286 286 284 278 277 280 288 288 290 288 288 289 290 291 292 293 294 295 296 296 298 297 298 298 298 298 298 300 301 302 303 304 303 304 303 303
290 286 282 284 288 288 288 287 286 282 279 282 281 281 291 290 290 289 288 289 290 291 292 293 293 294 294 294 295 295 296 298 298 298 298 298 299 300 301 301 302 302 301 301
290 282 279 281 285 287 285 287 287 286 285 280 280 282 290 290 289 289 288 289 290 291 291 293 293 293 293 294 294 294 294 295 297 299 299 299 299 299 299 300 300 301 300 299
292 284 281 279 279 283 282 285 287 285 283 282 282 283 286 287 288 288 288 289 290 290 291 292 292 293 293 293 293 293 294 295 295 297 298 298 298 298 299 300 299 299 298 298
288 282 281 283 282 281 282 283 284 284 284 282 284 285 287 288 289 289 289 289 289 289 290 291 291 293 293 293 293 293 293 294 294 295 296 297 297 298 298 298 298 297 296 295
284 280 279 277 280 279 277 281 282 284 286 285 284 285 291 290 290 289 288 288 288 289 289 290 291 292 292 292 292 292 292 293 294 294 294 295 296 296 297 297 296 295 294 293
282 279 278 277 274 274 274 277 281 284 286 288 284 289 290 287 288 288 288 288 288 289 290 290 291 291 291 291 291 291 291 292 292 293 293 293 294 295 296 295 295 295 294 293
278 275 274 276 273 271 280 281 281 284 285 288 286 287 287 288 290 290 290 290 289 289 290 290 291 291 292 292 292 291 291 291 292 291 291 292 292 293 293 294 294 294 294 293
283 279 271 274 273 276 278 278 280 280 282 286 287 286 286 287 288 287 290 291 290 291 291 291 291 291 291 291 290 290 291 290 291 290 290 290 290 290 291 291 292 293 292 291
280 280 279 270 272 270 278 282 284 284 278 284 287 286 286 286 283 286 290 290 290 290 290 291 291 291 291 291 290 290 290 289 290 289 288 288 288 289 291 291 291 291 291 289
275 275 275 271 274 276 281 284 284 276 279 284 286 286 286 285 288 289 289 289 290 290 290 290 290 290 290 290 289 289 289 290 289 288 287 287 287 287 289 290 289 290 289 288
276 274 273 270 272 272 282 282 279 284 286 287 285 286 287 286 286 288 288 289 289 289 289 289 289 289 289 289 287 288 288 289 287 287 286 286 285 286 287 287 287 287 288 287
277 279 277 277 279 282 283 285 287 287 287 287 288 288 288 287 288 288 288 289 289 289 288 288 288 287 288 287 286 285 288 287 285 283 283 283 284 285 285 286 287 287 286 286
279 281 279 278 283 282 284 285 286 287 288 288 289 289 288 288 288 287 287 287 287 287 287 286 286 286 287 287 284 285 286 284 281 282 284 284 283 286 285 287 287 288 285 285
281 281 279 279 281 282 284 286 288 287 288 287 287 288 288 288 287 287 286 286 287 286 286 285 284 284 285 285 285 286 284 281 281 282 283 284 285 285 287 286 287 287 288 287
280 280 279 280 285 286 286 287 288 287 286 288 287 285 286 287 288 286 287 287 286 286 285 283 283 281 283 284 283 284 282 280 280 283 285 286 286 286 285 286 286 286 286 286
Wind_Speed
2 4 6 10 9 12 13 14 15 15 8 5 10 13 9 11 16 15 12 5 9 7 11 5 6 8 7 10 11 11 10 11 9 7 6 5 7 8 8 8 10 10 9 10
4 3 7 9 11 11 11 13 9 10 5 7 3 9 8 14 12 14 11 8 7 9 17 19 14 2 3 5 9 9 10 9 9 6 6 5 8 7 6 7 8 10 11 11
4 5 8 6 11 12 4 5 7 6 3 7 9 5 3 8 16 15 5 15 15 17 19 18 19 15 12 8 2 5 9 9 9 9 7 4 4 3 4 5 6 9 12 11
4 4 6 10 7 8 6 8 4 7 3 2 5 3 4 6 10 8 8 20 18 17 21 21 17 16 14 12 7 10 9 6 1 6 7 9 6 6 3 3 3 3 5 7
3 6 9 9 7 8 8 15 5 7 4 2 6 3 4 4 6 7 16 17 15 18 20 19 17 12 11 9 9 10 10 10 11 8 3 1 2 1 1 1 3 1 2 3
4 3 3 4 15 9 16 7 5 4 2 4 10 2 5 4 4 4 9 15 15 11 17 19 8 6 9 11 11 8 8 6 9 7 8 8 6 3 4 4 2 2 2 2
4 3 3 2 9 2 14 6 1 1 3 5 10 6 3 8 8 4 5 9 6 9 11 9 12 14 11 15 11 9 9 8 9 9 5 9 8 8 5 2 3 3 1 2
3 3 7 5 4 6 10 6 4 4 3 4 8 6 6 6 4 3 3 6 5 7 8 9 4 7 10 10 12 11 9 9 12 7 4 7 4 4 2 2 0 3 2 3
3 3 3 2 2 3 5 5 4 1 2 2 3 0 1 3 9 10 11 10 11 10 7 5 6 4 7 5 6 6 9 11 8 8 8 6 8 7 2 4 4 4 3 3
2 5 1 4 3 4 4 4 2 1 1 4 4 3 5 4 6 8 10 10 9 9 10 9 7 6 2 1 3 2 1 2 3 5 5 6 7 5 2 3 6 5 4 5
2 2 1 3 5 5 5 2 3 1 3 1 3 4 2 2 4 7 8 7 8 10 10 9 8 8 6 6 6 4 3 3 3 3 3 3 3 4 4 3 2 3 3 4
1 1 4 0 0 1 2 4 4 3 2 3 2 5 3 5 5 6 7 7 7 8 9 8 8 8 8 8 8 6 5 4 3 1 3 3 2 1 1 3 2 3 3 3
3 1 4 1 2 2 2 3 3 4 2 2 2 6 3 8 8 5 7 6 5 6 7 8 8 8 9 9 9 8 8 8 7 5 4 4 3 1 2 2 2 3 2 3
0 1 3 2 3 2 4 4 3 3 2 1 1 9 8 9 11 8 6 4 5 5 6 7 7 8 7 8 10 10 10 9 8 7 5 4 4 3 2 1 2 3 2 3
2 3 2 3 2 3 5 7 5 2 0 3 2 12 12 11 11 8 6 5 4 5 7 8 8 7 8 9 9 9 9 10 10 9 8 7 5 3 1 1 2 3 3 3
3 3 2 3 3 3 5 9 7 6 3 2 3 7 6 8 9 8 6 5 4 5 5 5 6 7 8 8 7 7 8 8 8 8 9 8 7 4 3 2 1 2 2 3
4 5 3 2 3 4 6 9 11 5 4 5 7 4 12 8 10 11 8 5 3 3 4 6 6 5 5 5 6 7 7 6 6 6 7 7 8 7 5 2 1 2 3 2
6 4 1 1 2 5 1 3 1 6 4 6 1 7 8 9 7 8 6 5 3 3 1 2 4 5 5 6 7 7 7 7 7 7 7 7 7 6 5 3 3 2 1 2
2 4 3 2 3 6 3 5 6 7 9 10 8 9 7 8 7 4 4 3 1 3 4 3 3 4 4 4 4 6 6 5 5 6 6 6 6 6 5 3 3 3 3 3
5 4 1 3 4 5 1 2 4 3 4 11 10 10 11 9 8 7 8 3 2 3 3 3 3 3 3 3 4 5 6 6 6 5 5 5 4 4 5 4 2 2 2 3
4 2 6 3 4 8 7 5 4 5 2 9 11 11 13 7 0 6 7 2 2 3 3 3 3 5 5 4 4 6 5 5 4 3 4 4 4 4 3 3 1 2 2 3
9 8 5 3 4 10 8 6 8 1 3 8 6 8 9 4 6 5 2 3 2 4 4 4 5 5 5 4 4 7 7 5 4 4 4 4 4 3 2 1 1 2 3 4
7 7 7 11 7 2 9 2 3 4 6 6 10 8 8 6 5 4 3 3 3 4 4 3 4 5 5 3 3 6 4 4 4 4 5 4 4 3 3 2 3 2 3 3
5 4 3 4 7 10 8 9 3 5 5 7 5 7 6 6 6 4 2 3 3 3 4 3 5 6 8 4 4 6 8 6 5 7 7 4 4 4 4 3 4 4 5 5
3 11 7 5 4 2 9 11 9 8 4 5 4 5 7 5 4 4 3 3 3 3 3 2 4 5 8 6 8 7 5 2 5 6 8 7 5 6 5 6 6 6 6 7
7 7 8 8 9 7 8 15 12 10 10 9 7 5 4 4 4 3 3 2 3 5 3 5 5 5 8 7 10 8 4 4 6 7 6 6 6 6 6 6 6 13 13 11
Wind_Direction
23 291 343 329 302 284 303 290 284 283 279 250 231 222 62 39 34 14 2 343 35 19 13 95 200 184 188 174 186 194 185 187 180 171 171 188 195 212 224 227 226 226 228 229
230 290 348 307 309 299 307 281 302 309 188 220 86 79 85 52 48 26 354 46 34 34 42 40 26 21 245 189 196 188 197 188 192 189 195 205 208 223 227 227 231 232 231 228
295 330 324 309 322 335 319 300 305 275 87 36 108 98 47 58 52 14 339 68 51 44 46 37 24 21 30 25 309 207 200 190 198 194 184 167 169 183 199 221 237 241 239 236
275 311 321 312 335 349 289 9 348 338 186 130 355 93 41 35 50 336 8 47 48 41 53 47 14 13 19 11 26 51 53 62 12 191 198 193 201 211 217 216 248 259 248 249
38 301 324 314 325 328 285 327 323 359 42 135 24 100 15 7 14 324 42 41 48 47 52 46 18 353 353 16 13 38 36 50 32 13 349 181 203 224 202 202 236 247 92 53
280 284 259 298 306 286 292 295 219 158 323 44 349 334 34 2 300 351 54 68 50 33 49 58 10 340 347 20 11 28 44 26 53 36 10 68 63 71 62 17 16 83 43 46
331 250 308 284 313 282 338 343 306 90 39 45 343 56 40 333 333 350 22 29 80 71 69 48 36 13 359 20 2 8 29 11 40 43 18 67 27 24 36 359 35 46 56 79
359 190 359 8 7 314 318 0 13 12 7 24 8 23 8 327 3 55 345 319 28 53 68 77 65 19 17 5 6 358 19 31 33 2 3 17 60 82 71 109 139 81 61 69
334 256 319 236 340 351 352 33 346 61 142 92 32 183 116 352 45 48 49 43 41 57 74 95 75 60 13 352 31 0 1 7 18 15 23 354 28 20 11 72 97 88 91 108
49 291 307 323 312 170 309 346 272 27 12 91 85 43 62 42 53 72 65 65 58 67 70 74 82 80 87 360 45 39 263 360 3 23 0 356 347 355 343 54 60 52 51 45
294 275 344 274 30 358 337 358 29 357 333 117 132 109 54 90 99 85 72 66 73 64 54 54 58 62 60 68 76 64 29 23 359 12 338 341 324 341 10 36 66 85 112 155
53 321 270 276 343 260 266 327 308 305 142 39 49 118 79 105 92 93 80 67 66 69 72 59 48 45 51 47 51 49 41 46 19 163 192 194 220 305 41 62 84 168 158 169
158 247 296 176 150 144 16 346 330 306 301 172 187 141 106 127 126 120 116 99 76 68 65 62 51 39 32 28 33 34 27 20 8 2 15 23 30 101 123 156 162 108 120 93
144 198 263 322 15 334 301 324 351 322 284 174 171 143 162 160 151 149 136 112 83 66 53 51 46 40 35 29 24 16 17 16 12 20 20 24 1 352 347 80 106 107 80 80
211 232 244 259 246 258 262 280 291 285 315 263 144 170 166 166 161 148 127 121 108 65 49 38 33 28 27 25 23 19 16 10 3 15 20 12 344 334 348 39 45 53 60 75
164 193 172 271 249 279 281 263 256 251 219 160 185 163 154 146 144 154 152 143 98 63 53 35 26 20 19 15 10 9 12 7 360 9 5 0 1 354 346 355 40 74 76 69
158 152 157 239 328 315 262 238 208 192 201 171 188 184 160 164 171 159 158 151 103 43 16 9 5 4 5 1 349 358 351 352 7 12 10 2 353 351 342 319 194 180 176 167
139 113 32 265 278 241 88 158 213 216 203 199 164 156 170 161 146 159 165 158 161 206 242 318 323 333 349 348 346 341 352 358 0 7 5 2 357 350 334 292 262 255 244 227
214 142 113 219 228 309 221 194 184 187 219 196 166 151 141 130 131 159 195 210 287 339 335 313 310 310 316 320 330 334 338 345 349 0 356 352 346 338 333 302 241 203 201 194
104 67 201 166 212 235 237 159 175 178 254 180 181 167 159 160 172 178 188 198 249 300 308 324 318 273 275 297 316 323 331 329 335 343 337 339 334 330 333 320 256 227 212 188
137 90 196 172 234 280 232 143 169 185 238 152 179 174 165 180 130 129 148 191 258 292 306 304 300 309 315 318 314 303 310 308 318 315 313 318 326 320 331 328 292 240 184 151
174 160 176 133 200 256 161 125 202 113 135 149 156 165 168 162 154 141 170 240 265 308 334 314 298 302 309 312 315 306 306 307 303 306 305 307 309 317 309 248 236 195 170 165
211 199 179 202 212 117 189 258 199 176 148 156 150 171 177 157 173 179 197 233 266 294 307 313 309 304 295 302 281 290 278 312 308 311 296 288 286 275 265 229 200 192 191 197
225 189 212 160 203 220 209 215 244 194 169 151 141 153 171 178 180 193 239 282 304 331 334 338 334 323 308 315 297 260 300 313 296 274 259 236 241 255 242 237 220 210 204 209
176 160 174 256 259 288 233 218 196 189 170 134 127 166 182 169 185 210 245 277 300 292 265 273 279 273 277 291 290 288 276 252 271 276 282 273 248 231 233 226 222 220 217 208
186 174 185 215 190 197 204 196 189 179 191 183 170 176 174 175 204 199 272 302 287 287 311 322 314 289 295 300 293 293 271 259 249 256 255 251 256 252 240 230 242 233 244 231